Location: Csohesd
(46.2500°N, 22.6167°E)
Time: 06:00:00
(UTC+00:00)

SKYMED 2 - Pass Details

Date: 21 October 2021
Orbit: 621 x 623 km, 97.9° (Epoch: 04 December)

Event Time Altitude Azimuth Distance (km) Brightness Sun altitude
Rises 16:06:55 0° 20° (NNE) 2,916 6.7 -6.6°
Reaches altitude 10° 16:09:15 10° 28° (NNE) 2,004 5.8 -7.0°
Maximum altitude 16:13:20 39° 98° (E) 946 4.1 -7.7°
Drops below altitude 10° 16:17:23 10° 167° (SSE) 1,987 6.1 -8.4°
Sets 16:19:41 0° 175° (S) 2,888 7.0 -8.8°
